SCP
0 0 0 0 0 0 0 0 0 0 0 0 0 0 0 0 0 0 0 0 0 0 0 0 0 0 0 0 0 0 0 0 0 0 0 0 0 0 0 0 0 0 0
0 0 0 0 0 0 0 0 0 0 0 0 0 0 0 0 0 0 0 0 0 0 0 0 0 0 0 0 0 0 0 0 0 0 0 0 0 0 0 0 0 0 0
0 0 0 0 0 0 0 0 0 0 0 0 0 0 0 0 0 0 0 0 0 0 0 0 0 0 0 0 0 0 0 0 0 0 0 0 0 0 0 0 0 0 0
0 0 0 0 0 0 0 0 0 0 0 0 0 0 0 0 0 0 0 0 0 0 0 0 0 0 0 0 0 0 0 0 0 0 0 0 0 0 0 0 0 0 0
0 0 0 0 0 0 0 0 0 0 0 0 0 0 0 0 0 0 0 0 0 0 0 0 0 0 0 0 0 0 0 0 0 0 0 0 0 0 0 0 0 0 0
0 0 0 0 0 0 0 0 0 0 0 0 0 0 0 0 0 0 0 0 0 0 0 0 0 0 0 0 0 0 0 0 0 0 0 0 0 0 0 0 0 0 0
0 0 0 0 0 0 0 0 0 0 0 0 0 0 0 0 0 0 0 0 0 0 0 0 0 0 0 0 0 0 0 0 0 0 0 0 0 0 0 0 0 0 0
0 0 0 0 0 0 0 0 0 0 0 0 0 0 0 0 0 0 0 0 0 0 0 0 0 0 0 0 0 0 0 0 0 0 0 0 0 0 0 0 0 0 0
0 0 0 0 0 0 0 0 0 0 0 0 0 0 0 0 0 0 0 0 0 0 0 0 0 0 0 0 0 0 0 0 0 0 0 0 0 0 0 0 0 0 0
0 0 0 0 0 0 0 0 0 0 0 0 0 0 0 0 0 0 0 0 0 0 0 0 0 0 0 0 0 0 0 0 0 0 0 0 0 0 0 0 0 0 0
0 0 0 0 0 0 0 0 0 0 0 0 0 0 0 0 0 0 0 0 0 0 0 0 0 0 0 0 0 0 0 0 0 0 0 0 0 0 0 0 0 0 0
0 0 0 0 0 0 0 0 0 0 0 0 0 0 0 0 0 0 0 0 0 0 0 0 0 0 0 0 0 0 0 0 0 0 0 0 0 0 0 0 0 0 0
0 0 0 0 0 0 0 0 0 0 0 0 0 0 0 0 0 0 0 0 0 0 0 0 0 0 0 0 0 0 0 0 0 0 0 0 0 0 0 0 0 0 0
0 0 0 0 0 0 0 0 0 0 0 0 0 0 0 0 0 0 0 0 0 0 0 0 0 0 0 0 0 0 0 0 0 0 0 0 0 0 0 0 0 0 0
0 0 0 0 0 0 0 0 0 0 0 0 0 0 0 0 0 0 0 0 0 0 0 0 0 0 0 0 0 0 0 0 0 0 0 0 0 0 0 0 0 0 0
0 0 0 0 0 0 0 0 0 0 0 0 0 0 0 0 0 0 0 0 0 0 0 0 0 0 0 0 0 0 0 0 0 0 0 0 0 0 0 0 0 0 0
0 0 0 0 0 0 0 0 0 0 0 0 0 0 0 0 0 0 0 0 0 0 0 0 0 0 0 0 0 0 0 0 0 0 0 0 0 0 0 0 0 0 0
0 0 0 0 0 0 0 0 0 0 0 0 0 0 0 0 0 0 0 0 0 0 0 0 0 0 0 0 0 0 0 0 0 0 0 0 0 0 0 0 0 0 0
0 0 0 0 0 0 0 0 0 0 0 0 0 0 0 0 0 0 0 0 0 0 0 0 0 0 0 0 0 0 0 0 0 0 0 0 0 0 0 0 0 0 0
0 0 0 0 0 0 0 0 0 0 0 0 0 0 0 0 0 0 0 0 0 0 0 0 0 0 0 0 0 0 0 0 0 0 0 0 0 0 0 0 0 0 0
0 0 0 0 0 0 0 0 0 0 0 0 0 0 0 0 0 0 0 0 0 0 0 0 0 0 0 0 0 0 0 0 0 0 0 0 0 0 0 0 0 0 0
0 0 0 0 0 0 0 0 0 0 0 0 0 0 0 0 0 0 0 0 0 0 0 0 0 0 0 0 0 0 0 0 0 0 0 0 0 0 0 0 0 0 0
0 0 0 0 0 0 0 0 0 0 0 0 0 0 0 0 0 0 0 0 0 0 0 0 0 0 0 0 0 0 0 0 0 0 0 0 0 0 0 0 0 0 0
0 0 0 0 0 0 0 0 0 0 0 0 0 0 0 0 0 0 0 0 0 0 0 0 0 0 0 0 0 0 0 0 0 0 0 0 0 0 0 0 0 0 0
0 0 0 0 0 0 0 0 0 0 0 0 0 0 0 0 0 0 0 0 0 0 0 0 0 0 0 0 0 0 0 0 0 0 0 0 0 0 0 0 0 0 0
0 0 0 0 0 0 0 0 0 0 0 0 0 0 0 0 0 0 0 0 0 0 0 0 0 0 0 0 0 0 0 0 0 0 0 0 0 0 0 0 0 0 0
Wind_Speed
7 7 7 8 9 11 12 12 12 10 8 7 8 8 9 9 9 10 13 13 12 11 10 7 8 8 7 8 9 8 11 9 10 11 11 12 13 12 10 10 12 14 15
9 9 9 10 11 12 13 13 13 12 11 9 9 9 9 9 8 8 11 12 12 11 9 9 7 8 7 8 9 9 8 8 10 10 12 11 11 9 11 14 14 15 14
12 11 11 11 12 12 13 12 14 14 13 12 9 8 8 7 7 8 8 10 11 11 10 10 8 8 7 7 9 9 10 10 10 9 9 10 11 15 11 13 13 15 15
12 12 12 12 12 11 11 14 14 14 13 11 11 11 9 8 7 6 6 8 10 10 10 9 9 8 7 8 8 9 8 9 9 8 7 10 14 12 13 12 13 16 16
12 12 11 11 11 10 11 12 14 14 13 12 12 11 10 8 5 5 7 7 7 9 10 9 8 8 7 8 9 9 9 7 9 8 9 11 11 14 16 18 15 14 14
12 12 11 11 11 10 10 11 13 13 12 12 12 11 10 8 7 7 6 5 5 6 9 8 8 8 7 8 9 9 10 8 9 9 8 9 10 12 14 18 19 17 15
14 13 13 12 11 10 10 10 12 12 11 11 11 10 9 8 8 6 6 6 5 6 9 8 8 8 8 9 9 9 9 9 10 10 9 9 10 11 13 15 17 20 17
14 13 13 11 11 10 10 10 11 11 10 9 9 8 7 5 5 6 6 6 5 6 8 9 8 9 9 9 9 8 8 9 10 11 12 10 10 10 11 13 15 18 18
15 14 12 11 11 10 9 10 10 10 9 8 8 7 7 6 6 6 6 5 5 5 8 8 9 9 9 10 10 8 10 10 11 11 13 11 10 10 11 12 13 15 19
14 13 12 11 10 9 9 9 9 9 8 7 6 5 6 6 5 5 6 6 6 7 8 9 10 10 10 10 10 10 10 12 12 11 13 13 11 11 12 12 13 13 16
15 13 12 11 10 10 9 9 8 8 7 6 6 6 5 5 5 5 6 6 7 8 9 9 10 10 11 11 11 11 13 14 14 14 15 16 16 13 12 13 13 13 14
14 13 12 11 10 10 9 8 7 7 6 5 5 5 4 4 4 5 6 7 8 8 9 9 10 11 11 12 13 13 14 15 16 16 16 17 14 17 15 14 15 15 15
14 13 13 12 11 10 9 8 7 6 5 4 4 3 3 4 5 6 6 7 8 8 9 9 10 11 12 13 13 14 16 16 17 17 17 17 17 18 15 17 16 14 14
14 14 13 12 11 10 9 8 7 6 5 3 2 2 4 5 6 6 7 7 8 9 9 10 11 11 12 12 13 16 17 17 17 17 17 17 17 18 19 16 17 16 17
14 15 14 13 12 10 9 7 6 5 4 2 1 2 4 5 6 6 7 8 8 9 9 10 11 12 12 11 16 17 18 18 18 17 17 17 19 22 19 17 17 18 17
14 14 15 14 13 11 9 7 6 5 3 2 1 3 4 5 6 7 8 8 9 9 10 11 12 13 11 16 21 20 18 18 18 17 17 17 18 20 25 26 26 26 22
12 14 14 13 12 10 9 8 6 5 3 1 1 3 5 6 7 8 8 9 9 10 12 13 14 14 15 19 22 23 19 17 16 17 17 15 16 22 19 23 27 26 27
9 11 12 12 11 9 8 7 5 4 2 0 2 4 5 7 8 9 9 10 10 11 12 13 14 15 15 19 21 24 18 16 16 16 18 19 19 18 22 23 22 20 19
6 8 11 12 11 10 8 7 5 3 1 1 3 4 6 8 9 10 10 11 11 12 13 13 15 15 16 18 21 22 16 14 17 17 18 19 20 24 29 25 21 21 20
7 9 11 12 11 9 7 6 4 2 1 3 4 6 7 8 9 10 11 11 12 13 13 13 14 14 15 18 20 22 13 15 15 16 17 21 22 27 31 24 21 22 22
10 11 11 10 9 8 6 5 3 1 2 4 5 6 7 8 10 11 11 12 12 13 13 14 12 13 14 17 19 22 14 15 17 16 15 15 26 31 33 29 20 23 26
10 10 9 8 7 7 5 4 2 1 3 5 6 7 8 8 8 10 11 12 12 13 13 13 12 10 11 15 18 22 22 23 18 16 15 17 30 34 32 23 23 30 26
9 8 9 8 7 5 4 3 1 2 4 6 7 8 9 9 9 10 11 11 11 10 11 11 12 11 10 13 19 22 25 27 19 15 23 28 31 28 20 22 27 23 14
8 7 8 7 6 5 3 2 2 3 5 7 8 8 9 9 9 8 8 9 10 10 11 12 13 12 12 12 12 14 16 20 18 15 20 26 24 20 21 20 16 13 13
7 7 7 6 6 5 4 2 2 3 6 8 8 8 8 9 9 9 8 10 10 11 14 13 13 14 14 16 25 21 17 17 17 20 15 14 14 14 14 14 14 14 14
7 7 6 6 6 5 3 2 2 4 6 7 8 7 7 8 9 10 10 11 13 17 19 20 19 15 19 27 28 29 29 29 27 20 13 13 14 14 15 15 15 15 14
Wind_Direction
101 87 79 76 74 67 64 65 70 78 91 99 100 95 84 78 68 60 56 54 52 49 44 36 31 19 15 6 356 347 334 328 331 315 309 299 288 294 292 301 302 296 292
123 102 92 80 73 71 70 70 69 71 74 79 83 88 91 77 72 65 56 51 48 43 37 31 23 15 2 1 356 351 335 330 332 325 316 312 308 305 322 307 296 297 298
135 120 103 91 83 76 75 78 78 78 82 90 98 102 96 89 68 56 52 45 42 38 34 26 17 9 3 357 351 350 342 332 328 334 319 317 317 320 296 310 313 308 305
138 128 117 102 91 86 84 84 83 81 80 84 86 85 78 73 59 48 46 46 41 34 25 20 14 7 1 355 349 348 339 332 329 327 321 312 309 308 307 307 307 310 308
146 135 122 111 102 96 89 87 84 78 76 77 78 80 78 77 67 55 45 38 37 32 21 13 8 4 358 353 346 342 341 334 329 325 319 314 311 306 308 307 308 303 299
150 138 129 121 113 105 96 92 88 83 79 79 77 78 81 77 68 52 38 28 25 21 20 7 6 3 358 350 344 337 337 332 328 322 316 314 309 308 305 303 306 304 303
158 152 145 136 127 117 107 103 98 93 88 85 83 83 82 76 61 43 31 21 15 13 9 4 360 359 353 346 341 331 329 326 323 315 313 308 302 302 301 300 303 303 303
166 160 151 143 135 126 120 115 107 102 97 92 89 84 77 67 56 41 29 21 10 5 358 354 350 348 344 339 335 321 322 320 316 312 311 304 301 302 302 302 303 303 304
169 163 154 148 141 134 129 123 116 111 105 100 94 83 72 63 53 40 30 19 8 352 350 346 343 341 338 335 329 321 321 319 315 311 307 302 300 301 302 299 299 300 300
169 164 159 151 142 133 129 124 119 115 110 100 88 79 68 56 45 35 27 12 358 350 344 343 338 335 331 329 324 318 318 315 312 307 304 302 299 301 299 298 297 291 289
172 167 160 150 143 139 139 134 129 124 114 101 91 79 64 47 34 29 17 1 351 346 342 336 329 327 326 326 321 318 316 312 309 308 306 305 302 301 300 298 293 290 289
170 165 157 152 152 151 149 144 140 130 116 103 88 73 58 35 23 19 7 353 345 340 334 326 321 323 324 323 318 316 314 311 310 309 307 305 305 303 301 298 295 293 292
168 165 163 163 162 159 157 152 146 134 121 105 86 68 42 21 14 6 355 345 337 329 326 322 322 322 322 317 314 315 313 311 308 308 307 306 307 304 303 302 298 297 298
173 173 173 172 168 164 161 156 146 137 125 111 86 47 23 10 2 352 342 334 326 321 321 320 319 318 317 313 319 318 312 310 308 306 305 307 307 306 306 302 302 303 302
180 182 180 176 171 166 162 155 147 143 141 136 91 29 6 359 348 340 330 321 315 314 314 314 316 317 314 318 323 316 312 311 308 307 308 308 306 302 301 302 303 304 300
186 186 184 179 174 168 161 157 153 149 156 150 49 7 352 346 335 327 318 311 310 313 314 315 316 315 313 319 316 315 312 310 309 311 310 308 305 305 305 304 302 301 300
186 187 185 179 171 164 159 159 152 151 156 132 7 351 342 330 322 314 309 312 315 316 314 314 315 313 313 315 316 316 313 309 309 310 309 308 307 308 306 306 306 303 300
182 181 175 167 159 151 151 147 148 153 156 135 343 339 326 317 313 311 314 319 318 314 311 311 311 310 310 316 318 318 316 311 309 309 308 307 308 309 311 310 308 305 305
163 162 158 153 148 148 150 154 157 160 186 313 327 324 316 312 312 316 321 319 315 310 309 309 310 310 313 319 319 321 317 311 312 310 309 309 308 311 314 314 310 310 310
124 134 138 141 142 145 153 163 165 189 271 317 316 311 308 309 313 316 314 312 310 306 308 307 309 311 313 315 317 321 316 314 314 311 310 309 311 314 317 315 313 312 313
126 134 138 139 140 145 156 165 178 242 312 307 303 304 309 312 311 309 310 308 306 305 307 310 312 313 311 313 317 321 320 316 314 312 312 313 316 317 317 317 313 311 313
135 140 138 134 137 147 156 171 215 290 302 300 302 307 310 310 304 305 306 307 308 310 314 315 315 312 313 315 317 318 317 315 312 311 312 314 317 319 320 319 315 316 317
146 146 142 138 141 148 163 207 241 298 301 303 306 307 306 303 301 301 305 309 313 314 315 314 313 317 318 316 316 317 317 317 315 310 313 316 319 321 319 317 319 320 314
156 151 150 151 155 162 181 230 273 295 300 302 303 302 302 303 305 304 304 311 314 313 312 313 315 317 315 315 317 317 317 318 317 316 317 319 319 319 318 319 319 317 311
162 160 164 166 167 172 193 221 273 295 295 296 296 299 301 303 305 305 307 308 303 304 308 310 312 312 312 313 315 317 318 318 317 323 320 320 321 320 319 319 318 316 315
162 162 165 167 165 173 194 240 279 281 286 291 299 303 304 304 307 310 308 298 295 300 301 301 303 304 304 309 314 318 319 320 325 327 320 320 319 319 320 319 318 316 315